Home   Weather   Wageningen   Past weeks

Flag for Netherlands Past Weather in Wageningen, Netherlands — Yesterday and Last 2 Weeks

Now
39 °F

Overcast.


Feels Like: 36 °F
Forecast: 30 / 42 °F
Wind: 5 mph from North

Location: Deelen

Current Time: Dec 2, 2016 at 7:29:09 pm

Latest Report: Dec 2, 2016 at 6:55 pm


Visibility: N/A

Pressure: 30.24 "Hg

Humidity: 93%

Dew Point: 37 °F

Location of WageningenLocation

Past Weather in Wageningen — Graph

°F

Wageningen Temperature Yesterday

Maximum temperature yesterday: 48 °F (at 8:25 pm)
Minimum temperature yesterday: 39 °F (at 12:25 am)
Average temperature yesterday: 43 °F

High & Low Weather Summary for the Past Weeks

 TemperatureHumidityPressure
High57 °F (Nov 21, 2:25 pm)100% (Nov 20, 11:25 pm)30.57 "Hg (Nov 20, 11:25 pm)
Low18 °F (Nov 30, 2:25 am)56% (Nov 29, 2:55 pm)29.15 "Hg (Nov 20, 11:25 am)
Average41 °F86%30.03 "Hg
* Reported Nov 18 11:25 am — Dec 2 5:55 pm, Wageningen, Weather by CustomWeather, © 2016

Note: Actual official high and low records may vary slightly from our data, if they occured in-between our weather recording intervals... More about our weather records

Advertising

Wageningen Weather History for the Previous 24 Hours

Scroll right to see more
 ConditionsComfort  
Time TempWeatherWind HumidityBarometerVisibility
5:55 pm
Fri, Dec 2
41 °FMostly cloudy.2 mph93%30.24 "HgN/A
5:25 pm43 °FMostly cloudy.6 mph81%30.24 "HgN/A
4:55 pm39 °FPassing clouds.2 mph93%30.21 "HgN/A
4:25 pm41 °FPassing clouds.2 mph87%30.21 "HgN/A
3:55 pm45 °FMostly cloudy.5 mph76%30.21 "HgN/A
3:25 pm46 °FMore clouds than sun.7 mph71%30.21 "HgN/A
2:55 pm46 °FPassing clouds.6 mph76%30.21 "HgN/A
2:25 pm46 °FOvercast.10 mph76%30.21 "HgN/A
1:55 pm48 °FPassing clouds.6 mph71%30.21 "HgN/A
1:25 pm48 °FOvercast.6 mph76%30.21 "HgN/A
12:55 pm46 °FPartly sunny.5 mph82%30.21 "HgN/A
12:25 pm46 °FMostly cloudy.7 mph82%30.21 "HgN/A
11:55 am48 °FMostly cloudy.9 mph82%30.21 "HgN/A
11:25 am46 °FBroken clouds.6 mph93%30.21 "HgN/A
10:55 am46 °FMostly cloudy.6 mph93%30.21 "HgN/A
10:25 am46 °FDrizzle. Broken clouds.9 mph93%30.21 "Hg2 mi
9:55 am46 °FBroken clouds.6 mph93%30.21 "HgN/A
9:25 am46 °FFog.7 mph93%30.18 "Hg2 mi
8:55 am45 °FFog.7 mph100%30.18 "Hg2 mi
8:25 am45 °FDrizzle. Mostly cloudy.6 mph100%30.18 "Hg2 mi
7:55 am45 °FPartly cloudy.6 mph100%30.18 "HgN/A
7:25 am45 °FPartly cloudy.7 mph100%30.18 "HgN/A
6:55 am45 °FMostly cloudy.7 mph100%30.18 "HgN/A
6:25 am45 °FPartly cloudy.7 mph100%30.18 "HgN/A
5:55 am45 °FMostly cloudy.7 mph93%30.18 "HgN/A
5:25 am45 °FMostly cloudy.7 mph93%30.18 "HgN/A
4:55 am45 °FPassing clouds.8 mph93%30.18 "HgN/A
4:25 am45 °FOvercast.7 mph93%30.18 "HgN/A
3:55 am43 °FPassing clouds.6 mph100%30.18 "HgN/A
3:25 am45 °FPartly cloudy.6 mph93%30.18 "HgN/A
2:55 am45 °FPartly cloudy.8 mph93%30.18 "HgN/A
2:25 am45 °FPartly cloudy.9 mph93%30.18 "Hg4 mi
1:55 am45 °FMostly cloudy.5 mph93%30.18 "HgN/A
1:25 am46 °FLight rain. Partly cloudy.7 mph87%30.18 "HgN/A
12:55 am46 °FOvercast.7 mph87%30.18 "HgN/A
12:25 am46 °FMostly cloudy.8 mph93%30.18 "HgN/A
11:55 pm
Thu, Dec 1
46 °FOvercast.7 mph93%30.18 "HgN/A
11:25 pm46 °FOvercast.7 mph93%30.18 "HgN/A
10:55 pm46 °FOvercast.7 mph93%30.18 "HgN/A
10:25 pm46 °FOvercast.8 mph93%30.18 "HgN/A
9:55 pm46 °FPartly cloudy.7 mph93%30.21 "HgN/A
9:25 pm46 °FMostly cloudy.8 mph93%30.21 "HgN/A
8:55 pm46 °FMostly cloudy.7 mph93%30.21 "HgN/A
8:25 pm48 °FOvercast.8 mph87%30.21 "HgN/A
7:55 pm46 °FFog.6 mph93%30.21 "Hg6 mi
7:25 pm46 °FFog.7 mph93%30.21 "Hg6 mi
Weather by CustomWeather, © 2016

See weather overviewHow to use our weather pages